Location: Great Malvern
(52.1167°N, 2.3167°W)
Time: 10:28:10
(UTC+00:00)

Cosmos 2026 Rocket - Pass Details

Date: 18 September 2020
Orbit: 940 x 1000 km, 82.9° (Epoch: 25 October)

Event Time Altitude Azimuth Distance (km) Brightness Sun altitude
Rises 19:54:29 0° 351° (N) 3,712 7.5 -15.5°
Reaches altitude 10° 19:57:07 10° 357° (N) 2,767 6.7 -15.8°
Maximum altitude 20:03:16 50° 72° (ENE) 1,262 4.3 -16.7°
Enters shadow 20:06:54 24° 136° (SE) 1,924 5.0 -17.2°
